YAOGAN-30 Q

导读

YAOGAN-30 Q(遥感三十号05组卫星)是中国于2019年7月26日在西昌卫星发射中心,由长征二号丙运载火箭发射入轨的遥感卫星,本次发射是长征系列运载火箭第308次飞行。卫星采用多星组网模式运行,主要任务为开展电磁环境探测及相关空间技术试验,完成预定测试任务后已进入预定工作轨道,为相关科研领域提供了宝贵数据支撑。

Basic Information
目录编号:
44451
目录名称:
YAOGAN-30 Q
国际标识:
2019-045C
轨道中心:
EARTH
卫星名称:
YAOGAN-30 Q
卫星全名:
--
卫星状态:
在轨 (已飞行2606 天)
发射日期:
2019-07-26 UTC
国别 :
中国 (CN)
星等 :
--
This satellite is enrolled in the Space Conjunction Data Service (SCDS) and the current flight risk assessment level is: No High Risk
Orbit Information
数据来源 国际轨道数据 AOE轨道数据
星历时间 2026-09-13T08:25:27+0800
5小时前
查看轨道信息
2026-09-10T18:00:00+0800
2天前
查看轨道信息
半长轴 6935.684km 6935.723km
偏心率 0.0000708 0.0000944
轨道倾角 34.993° 34.995°
近地点辐角 289.891° 285.122°
升交点赤经 154.031° 169.893°
平近点角 70.172° 18.366°
近地点 557.055km 556.931km
远地点 558.039km 558.241km
周期 95.806分钟 95.807分钟
每日圈数 15.030342 15.030214
Detailed Information
使用方式:
暂无
2D Orbit Map
3D Orbit Map
Orbit Altitude Analysis Chart
Orbit Inclination Analysis Chart
Orbit Comprehensive Analysis Chart
View Comprehensive Chart
Miss Distance Evolution Trend with All Objects
Collision Probability Evolution Trend with All Objects